Westerly, RI

5:59 AM EST on January 22, 2017 (GMT -0500)
Westerly State

Weather History for KWST - December, 2013

Change the Weather History Date:

Monday, December 23, 2013

  Actual Average (KGON) Record (KGON)
Temperature  
Mean Temperature 47 °F -  
Max Temperature 55 °F 40 °F 61 °F (2015)
Min Temperature 39 °F 24 °F 0 °F (1989)
Degree Days  
Heating Degree Days 18    
Moisture  
Dew Point 44 °F    
Average Humidity 96    
Maximum Humidity 100    
Minimum Humidity 89    
Precipitation  
Precipitation 0.41 in - - ()
Sea Level Pressure  
Sea Level Pressure 30.01 in    
Wind  
Wind Speed 5 mph (NNE)    
Max Wind Speed 15 mph    
Max Gust Speed 22 mph    
Visibility 6 miles    
Events Rain    
Averages and records for this station are not official NWS values.
T = Trace of Precipitation, MM = Missing Value Source: NWS Daily Summary

Daily Weather History Graph

Daily Weather History Graph

Search for Another Location

Airport or City:

Trip Planner

Search our weather history database for the weather conditions in past years. The results will help you decide how hot, cold, wet, or windy it might be!

Date:

Astronomy

Dec. 23, 2013 Rise Set
Actual Time 7:10 AM EST 4:22 PM EST
Civil Twilight 6:39 AM EST 4:53 PM EST
Nautical Twilight 6:04 AM EST 5:28 PM EST
Astronomical Twilight 5:30 AM EST 6:02 PM EST
Moon 10:33 PM EST (12/23) 10:31 AM EST (12/23)
Length of Visible Light 10h 14m
Length of Day
9h 11m
Waning Gibbous, 68% of the Moon is Illuminated
Dec 23
Waning Gibbous
Dec 25
Last Quarter
Jan 1
New
Jan 7
First Quarter
Jan 15
Full

Hourly Weather History & Observations

Time (EST) Temp. Windchill Dew Point Humidity Pressure Visibility Wind Dir Wind Speed Gust Speed Precip Events Conditions
12:53 AM 55.0 °F - 52.0 °F 89% 29.98 in 10.0 mi SW 6.9 mph - N/A   Overcast
1:53 AM 54.0 °F - 52.0 °F 93% 29.99 in 10.0 mi SW 4.6 mph - N/A   Mostly Cloudy
2:53 AM 53.1 °F - 51.1 °F 93% 30.00 in 10.0 mi SSW 3.5 mph - N/A   Partly Cloudy
3:53 AM 53.1 °F - 51.1 °F 93% 29.99 in 9.0 mi Calm Calm - N/A   Overcast
4:53 AM 52.0 °F - 51.1 °F 97% 29.99 in 8.0 mi Calm Calm - N/A   Overcast
5:53 AM 51.1 °F - 50.0 °F 96% 30.00 in 8.0 mi ESE 4.6 mph - 0.00 in   Overcast
6:38 AM 51.1 °F - 50.0 °F 96% 30.01 in 4.0 mi ESE 6.9 mph - N/A   Mostly Cloudy
6:45 AM 50.0 °F - 48.9 °F 96% 30.02 in 5.0 mi East 5.8 mph - 0.00 in Rain Light Rain
6:53 AM 50.0 °F - 50.0 °F 100% 30.00 in 5.0 mi East 8.1 mph - 0.00 in Rain Light Rain
7:53 AM 48.0 °F - 46.9 °F 96% 30.03 in 4.0 mi ENE 5.8 mph - 0.00 in Rain Light Rain
8:11 AM 46.9 °F - 46.0 °F 97% 30.03 in 4.0 mi NE 5.8 mph - 0.00 in Rain Light Rain
8:37 AM 45.0 °F 42.6 °F 45.0 °F 100% 30.04 in 2.0 mi NE 4.6 mph - 0.00 in Rain Light Rain
8:53 AM 45.0 °F 42.6 °F 44.1 °F 97% 30.04 in 1.8 mi NE 4.6 mph - 0.01 in Rain Light Rain
9:02 AM 45.0 °F 43.5 °F 45.0 °F 100% 30.04 in 2.0 mi NNE 3.5 mph - 0.01 in Rain Light Rain
9:43 AM 44.1 °F 41.5 °F 43.0 °F 96% 30.04 in 3.0 mi NNE 4.6 mph - 0.02 in   Overcast
9:53 AM 43.0 °F 39.5 °F 43.0 °F 100% 30.05 in 2.5 mi NNE 5.8 mph - 0.02 in Rain Light Rain
10:10 AM 43.0 °F - 43.0 °F 100% 30.04 in 1.5 mi Calm Calm - 0.03 in Rain Rain
10:31 AM 43.0 °F 40.3 °F 43.0 °F 100% 30.01 in 2.0 mi NE 4.6 mph - 0.06 in Rain Light Rain
10:51 AM 42.8 °F 41.1 °F 42.8 °F 100% 30.00 in 4.0 mi NNE 3.5 mph - 0.07 in Rain Light Rain
10:53 AM 44.1 °F 42.5 °F 43.0 °F 96% 30.01 in 4.0 mi North 3.5 mph - 0.07 in Rain Light Rain
11:06 AM 43.0 °F - 43.0 °F 100% 30.01 in 2.5 mi Calm Calm - 0.01 in Rain Light Rain
11:28 AM 44.1 °F 42.5 °F 43.0 °F 96% 29.99 in 3.0 mi North 3.5 mph - 0.03 in Rain Light Rain
11:35 AM 44.1 °F 42.5 °F 43.0 °F 96% 29.99 in 3.0 mi NNW 3.5 mph - 0.03 in Rain Light Rain
11:45 AM 44.1 °F 42.5 °F 44.1 °F 100% 29.98 in 3.0 mi North 3.5 mph - 0.04 in Rain Light Rain
11:53 AM 44.1 °F 42.5 °F 44.1 °F 100% 29.98 in 5.0 mi NNE 3.5 mph - 0.04 in Rain Light Rain
12:51 PM 46.4 °F 45.2 °F 44.6 °F 93% 29.93 in 5.0 mi East 3.5 mph - 0.00 in Rain Light Rain
12:53 PM 46.0 °F 43.1 °F 46.0 °F 100% 29.94 in 6.0 mi ESE 5.8 mph - 0.00 in Rain Light Rain
1:19 PM 46.0 °F 40.2 °F 45.0 °F 96% 29.92 in 8.0 mi ESE 12.7 mph - 0.00 in Rain Light Rain
1:53 PM 45.0 °F 41.2 °F 44.1 °F 97% 29.94 in 4.0 mi NE 6.9 mph - 0.00 in Rain Light Rain
2:01 PM 44.1 °F 40.8 °F 44.1 °F 100% 29.94 in 4.0 mi ENE 5.8 mph - 0.00 in Rain Light Rain
2:20 PM 45.0 °F 42.6 °F 44.1 °F 97% 29.95 in 2.0 mi North 4.6 mph - 0.01 in Rain Rain
2:50 PM 44.6 °F 42.2 °F 44.6 °F 100% 29.96 in 2.5 mi NNE 4.6 mph - 0.08 in Rain Rain
2:53 PM 45.0 °F 41.8 °F 44.1 °F 97% 29.95 in 2.5 mi NNE 5.8 mph - 0.09 in Rain Rain
3:05 PM 45.0 °F 38.2 °F 44.1 °F 97% 30.00 in 1.2 mi NNW 15.0 mph 19.6 mph 0.07 in Rain Heavy Rain
3:16 PM 42.1 °F 35.7 °F 41.0 °F 96% 30.00 in 3.0 mi NNW 11.5 mph 21.9 mph 0.09 in Rain Rain
3:29 PM 42.1 °F 37.7 °F 41.0 °F 96% 29.99 in 3.0 mi NNE 6.9 mph - 0.11 in Rain Rain
3:53 PM 42.1 °F 38.4 °F 42.1 °F 100% 29.98 in 6.0 mi NE 5.8 mph - 0.13 in Rain Light Rain
4:02 PM 42.1 °F 36.1 °F 41.0 °F 96% 29.97 in 9.0 mi NNE 10.4 mph - 0.00 in Rain Light Rain
4:13 PM 42.1 °F 37.7 °F 41.0 °F 96% 29.97 in 6.0 mi NNE 6.9 mph - 0.00 in Rain Light Rain
4:25 PM 41.0 °F 35.8 °F 39.9 °F 96% 29.97 in 7.0 mi NNE 8.1 mph - 0.00 in Rain Light Rain
4:37 PM 39.9 °F 34.5 °F 39.0 °F 97% 29.98 in 9.0 mi NNE 8.1 mph - 0.00 in Rain Light Rain
4:45 PM 41.0 °F 37.1 °F 39.9 °F 96% 30.01 in 8.0 mi NNW 5.8 mph - 0.00 in Rain Light Rain
4:53 PM 41.0 °F 36.4 °F 39.9 °F 96% 30.02 in 7.0 mi North 6.9 mph - 0.00 in Rain Light Rain
5:15 PM 41.0 °F 37.1 °F 39.9 °F 96% 30.03 in 4.0 mi North 5.8 mph - 0.03 in Rain Light Rain
5:53 PM 41.0 °F 36.4 °F 39.0 °F 93% 30.02 in 9.0 mi NE 6.9 mph - 0.05 in Rain Light Rain
6:53 PM 41.0 °F - 39.9 °F 96% 30.03 in 10.0 mi Calm Calm - 0.00 in   Overcast
7:53 PM 41.0 °F - 39.9 °F 96% 30.04 in 10.0 mi Calm Calm - 0.00 in Rain Light Rain
8:28 PM 42.1 °F 37.7 °F 41.0 °F 96% 30.06 in 7.0 mi NW 6.9 mph - 0.00 in   Overcast
8:37 PM 42.1 °F 37.1 °F 41.0 °F 96% 30.06 in 10.0 mi NW 8.1 mph - 0.00 in   Overcast
8:53 PM 43.0 °F 38.8 °F 41.0 °F 93% 30.07 in 10.0 mi NW 6.9 mph - 0.00 in   Overcast
9:53 PM 43.0 °F 36.4 °F 41.0 °F 93% 30.08 in 10.0 mi NNW 12.7 mph - 0.00 in Rain Light Rain
10:32 PM 43.0 °F 36.8 °F 39.9 °F 89% 30.07 in 10.0 mi NNW 11.5 mph 16.1 mph 0.00 in Rain Light Rain
10:53 PM 42.1 °F 36.1 °F 39.9 °F 92% 30.08 in 10.0 mi NNW 10.4 mph - 0.00 in   Overcast
11:53 PM 41.0 °F 33.5 °F 37.9 °F 89% 30.08 in 10.0 mi NNW 13.8 mph 20.7 mph 0.00 in Rain Light Rain